Change the Weather History Date:

Tuesday, February 11, 2014

  Actual Average Record
Temperature  
Mean Temperature 24 °F -  
Max Temperature 33 °F 37 °F 44 °F (2015)
Min Temperature 14 °F 13 °F 14 °F (2014)
Degree Days  
Heating Degree Days 42    
Moisture  
Dew Point 19 °F    
Average Humidity 74    
Maximum Humidity 86    
Minimum Humidity 55    
Precipitation  
Precipitation 0.00 in - - ()
Sea Level Pressure  
Sea Level Pressure 30.05 in    
Wind  
Wind Speed 13 mph (SW)    
Max Wind Speed 31 mph    
Max Gust Speed 37 mph    
Visibility 10 miles    
Events      
Averages and records for this station are not official NWS values.
T = Trace of Precipitation, MM = Missing Value Source: NWS Daily Summary

Daily Weather History Graph

Daily Weather History Graph

Search for Another Location

Airport or City:

Trip Planner

Search our weather history database for the weather conditions in past years. The results will help you decide how hot, cold, wet, or windy it might be!

Date:

Astronomy

Feb. 11, 2014 Rise Set
Actual Time 7:07 AM MST 5:36 PM MST
Civil Twilight 6:38 AM MST 6:04 PM MST
Nautical Twilight 6:06 AM MST 6:37 PM MST
Astronomical Twilight 5:34 AM MST 7:09 PM MST
Moon 2:58 PM MST (2/11) 4:47 AM MST (2/11)
Length of Visible Light 11h 26m
Length of Day
10h 28m
Waxing Gibbous, 91% of the Moon is Illuminated
Feb 11
Waxing Gibbous
Feb 14
Full
Feb 22
Last Quarter
Mar 1
New
Mar 8
First Quarter

Hourly Weather History & Observations

Time (MST) Temp. Windchill Dew Point Humidity Pressure Visibility Wind Dir Wind Speed Gust Speed Precip Events Conditions
12:15 AM 23.0 °F 11.1 °F 17.6 °F 80% 30.11 in 10.0 mi SSW 12.7 mph - N/A   Clear
12:35 AM 21.2 °F 10.1 °F 17.6 °F 86% 30.11 in 10.0 mi SW 10.4 mph - N/A   Clear
12:55 AM 21.2 °F 11.7 °F 17.6 °F 86% 30.11 in 10.0 mi SSW 8.1 mph - N/A   Clear
1:15 AM 21.2 °F 10.9 °F 17.6 °F 86% 30.10 in 10.0 mi SW 9.2 mph - N/A   Clear
1:35 AM 23.0 °F 13.1 °F 17.6 °F 80% 30.10 in 10.0 mi WSW 9.2 mph - N/A   Clear
1:55 AM 19.4 °F 11.5 °F 15.8 °F 86% 30.09 in 10.0 mi WSW 5.8 mph - N/A   Clear
2:15 AM 19.4 °F 9.5 °F 15.8 °F 86% 30.09 in 10.0 mi SSW 8.1 mph - N/A   Clear
2:35 AM 19.4 °F 9.5 °F 14.0 °F 80% 30.09 in 10.0 mi SSE 8.1 mph - N/A   Clear
2:55 AM 19.4 °F 8.6 °F 14.0 °F 80% 30.08 in 10.0 mi SE 9.2 mph - N/A   Clear
3:15 AM 19.4 °F 9.5 °F 14.0 °F 80% 30.08 in 10.0 mi South 8.1 mph - N/A   Clear
3:35 AM 17.6 °F 7.3 °F 12.2 °F 79% 30.08 in 10.0 mi South 8.1 mph - N/A   Clear
3:55 AM 15.8 °F - 12.2 °F 86% 30.07 in 10.0 mi Calm Calm - N/A   Clear
4:16 AM 15.8 °F 8.6 °F 12.2 °F 86% 30.08 in 10.0 mi South 4.6 mph - N/A   Clear
4:35 AM 19.4 °F - 14.0 °F 80% 30.09 in 10.0 mi Calm Calm - N/A   Clear
4:55 AM 14.0 °F 8.2 °F 10.4 °F 86% 30.09 in 10.0 mi South 3.5 mph - N/A   Clear
5:15 AM 15.8 °F 7.2 °F 12.2 °F 86% 30.09 in 10.0 mi SSE 5.8 mph - N/A   Clear
5:35 AM 17.6 °F 10.7 °F 12.2 °F 79% 30.08 in 10.0 mi ESE 4.6 mph - N/A   Clear
5:55 AM 15.8 °F 5.1 °F 10.4 °F 79% 30.07 in 10.0 mi SE 8.1 mph - N/A   Clear
6:15 AM 15.8 °F 6.1 °F 10.4 °F 79% 30.07 in 10.0 mi SE 6.9 mph - N/A   Clear
6:35 AM 15.8 °F 6.1 °F 10.4 °F 79% 30.07 in 10.0 mi ESE 6.9 mph - N/A   Clear
6:55 AM 17.6 °F 6.4 °F 12.2 °F 79% 30.07 in 10.0 mi SSE 9.2 mph - N/A   Clear
7:15 AM 17.6 °F 5.0 °F 12.2 °F 79% 30.07 in 10.0 mi SE 11.5 mph - N/A   Clear
7:35 AM 19.4 °F 11.5 °F 12.2 °F 74% 30.08 in 10.0 mi ESE 5.8 mph - N/A   Clear
7:55 AM 17.6 °F - 12.2 °F 79% 30.09 in 10.0 mi Calm Calm - N/A   Clear
8:15 AM 19.4 °F 7.9 °F 14.0 °F 80% 30.09 in 10.0 mi East 10.4 mph - N/A   Scattered Clouds
8:35 AM 23.0 °F 15.8 °F 15.8 °F 74% 30.09 in 10.0 mi SSW 5.8 mph - N/A   Overcast
8:55 AM 26.6 °F 15.7 °F 19.4 °F 74% 30.08 in 10.0 mi SW 12.7 mph 19.6 mph N/A   Scattered Clouds
9:15 AM 28.4 °F 15.8 °F 19.4 °F 69% 30.07 in 10.0 mi SW 18.4 mph 23.0 mph N/A   Clear
9:35 AM 28.4 °F 15.4 °F 19.4 °F 69% 30.07 in 10.0 mi SW 19.6 mph 29.9 mph N/A   Scattered Clouds
9:55 AM 28.4 °F 16.6 °F 19.4 °F 69% 30.06 in 10.0 mi SW 16.1 mph 23.0 mph N/A   Scattered Clouds
10:15 AM 30.2 °F 20.2 °F 19.4 °F 64% 30.05 in 10.0 mi SSW 12.7 mph - N/A   Overcast
10:35 AM 30.2 °F 19.8 °F 17.6 °F 60% 30.05 in 10.0 mi SSW 13.8 mph 21.9 mph N/A   Mostly Cloudy
10:55 AM 32.0 °F 27.5 °F 17.6 °F 55% 30.06 in 10.0 mi SW 4.6 mph - N/A   Mostly Cloudy
11:15 AM 32.0 °F 20.5 °F 19.4 °F 60% 30.06 in 10.0 mi SW 18.4 mph 25.3 mph N/A   Overcast
11:35 AM 32.0 °F 19.2 °F 21.2 °F 64% 30.05 in 10.0 mi WSW 23.0 mph 28.8 mph N/A   Overcast
11:55 AM 30.2 °F 15.7 °F 19.4 °F 64% 30.04 in 10.0 mi WSW 27.6 mph 34.5 mph N/A   Overcast
12:15 PM 32.0 °F 18.1 °F 21.2 °F 64% 30.03 in 10.0 mi WSW 27.6 mph 33.4 mph N/A   Overcast
12:35 PM 32.0 °F 18.6 °F 21.2 °F 64% 30.02 in 10.0 mi WSW 25.3 mph 34.5 mph N/A   Scattered Clouds
12:55 PM 32.0 °F 19.2 °F 21.2 °F 64% 30.01 in 10.0 mi WSW 23.0 mph 31.1 mph N/A   Clear
1:15 PM 32.0 °F 19.2 °F 21.2 °F 64% 29.98 in 10.0 mi SW 23.0 mph 31.1 mph N/A   Mostly Cloudy
1:35 PM 32.0 °F 18.6 °F 21.2 °F 64% 29.98 in 10.0 mi WSW 25.3 mph 34.5 mph N/A   Overcast
1:55 PM 32.0 °F 19.2 °F 21.2 °F 64% 29.97 in 10.0 mi WSW 23.0 mph 31.1 mph N/A   Overcast
2:15 PM 32.0 °F 19.5 °F 21.2 °F 64% 29.96 in 10.0 mi SW 21.9 mph 33.4 mph N/A   Overcast
2:35 PM 33.8 °F 19.9 °F 21.2 °F 60% 29.95 in 10.0 mi SW 31.1 mph 36.8 mph N/A   Scattered Clouds
2:56 PM 32.0 °F 18.9 °F 21.2 °F 64% 29.96 in 10.0 mi WSW 24.2 mph 33.4 mph N/A   Scattered Clouds
3:15 PM 32.0 °F 19.5 °F 23.0 °F 69% 29.99 in 10.0 mi WSW 21.9 mph 28.8 mph N/A   Mostly Cloudy
3:35 PM 32.0 °F 21.2 °F 23.0 °F 69% 30.00 in 10.0 mi WSW 16.1 mph 24.2 mph N/A   Overcast
3:55 PM 32.0 °F 19.2 °F 23.0 °F 69% 30.00 in 10.0 mi WSW 23.0 mph 27.6 mph N/A   Scattered Clouds
4:15 PM 32.0 °F 19.8 °F 23.0 °F 69% 30.01 in 10.0 mi WSW 20.7 mph 25.3 mph N/A   Scattered Clouds
4:35 PM 32.0 °F 19.5 °F 23.0 °F 69% 30.01 in 10.0 mi WSW 21.9 mph 29.9 mph N/A   Scattered Clouds
4:55 PM 30.2 °F 16.2 °F 23.0 °F 75% 30.00 in 10.0 mi WSW 25.3 mph 29.9 mph N/A   Clear
5:15 PM 30.2 °F 17.4 °F 23.0 °F 75% 30.00 in 10.0 mi WSW 20.7 mph 27.6 mph N/A   Clear
5:35 PM 30.2 °F 17.4 °F 23.0 °F 75% 30.00 in 10.0 mi WSW 20.7 mph 27.6 mph N/A   Clear
5:55 PM 30.2 °F 17.4 °F 23.0 °F 75% 29.99 in 10.0 mi WSW 20.7 mph 27.6 mph N/A   Clear
6:15 PM 30.2 °F 16.5 °F 23.0 °F 75% 30.00 in 10.0 mi WSW 24.2 mph 32.2 mph N/A   Scattered Clouds
6:35 PM 30.2 °F 17.4 °F 23.0 °F 75% 30.00 in 10.0 mi WSW 20.7 mph 33.4 mph N/A   Mostly Cloudy
6:55 PM 30.2 °F 17.8 °F 23.0 °F 75% 30.02 in 10.0 mi WSW 19.6 mph 25.3 mph N/A   Scattered Clouds
7:15 PM 30.2 °F 18.1 °F 23.0 °F 75% 30.03 in 10.0 mi WSW 18.4 mph 34.5 mph N/A   Clear
7:35 PM 30.2 °F 18.1 °F 21.2 °F 69% 30.02 in 10.0 mi WSW 18.4 mph 24.2 mph N/A   Scattered Clouds
7:55 PM 30.2 °F 17.8 °F 21.2 °F 69% 30.03 in 10.0 mi West 19.6 mph 26.5 mph N/A   Scattered Clouds
8:15 PM 30.2 °F 15.9 °F 21.2 °F 69% 30.03 in 10.0 mi West 26.5 mph 34.5 mph N/A   Clear
8:35 PM 30.2 °F 15.4 °F 23.0 °F 75% 30.04 in 10.0 mi West 28.8 mph 36.8 mph N/A   Scattered Clouds
8:55 PM 30.2 °F 16.8 °F 21.2 °F 69% 30.05 in 10.0 mi West 23.0 mph 34.5 mph N/A   Clear
9:15 PM 28.4 °F 13.8 °F 21.2 °F 74% 30.06 in 10.0 mi West 25.3 mph 31.1 mph N/A   Clear
9:35 PM 28.4 °F 14.4 °F 21.2 °F 74% 30.06 in 10.0 mi West 23.0 mph 32.2 mph N/A   Clear
9:55 PM 28.4 °F 14.1 °F 21.2 °F 74% 30.07 in 10.0 mi West 24.2 mph 33.4 mph N/A   Clear
10:15 PM 28.4 °F 14.4 °F 21.2 °F 74% 30.09 in 10.0 mi West 23.0 mph 29.9 mph N/A   Clear
10:35 PM 26.6 °F 12.7 °F 21.2 °F 80% 30.09 in 10.0 mi West 20.7 mph 27.6 mph N/A   Clear
10:55 PM 26.6 °F 14.3 °F 21.2 °F 80% 30.10 in 10.0 mi West 16.1 mph 21.9 mph N/A   Clear
11:15 PM 26.6 °F 15.7 °F 21.2 °F 80% 30.11 in 10.0 mi West 12.7 mph 18.4 mph N/A   Scattered Clouds
11:35 PM 26.6 °F 15.7 °F 21.2 °F 80% 30.12 in 10.0 mi West 12.7 mph 18.4 mph N/A   Mostly Cloudy
11:55 PM 28.4 °F 18.5 °F 23.0 °F 80% 30.12 in 10.0 mi West 11.5 mph 20.7 mph N/A   Overcast